Powrót do katalogu

ARIANE 44LP DEB

LostGTO
NORAD 26808·DEBRIS·🇫🇷 France

Wystrzelony Dec 11, 1988 z Guiana Space Centre

Loading…

TLE

NieaktualneSource: Space-Track

Epoka: Oct 30, 2025, 03:30 UTC

1 26808U 88109L   25303.14608014 -.00000090  00000-0 -97344-3 0  9998
2 26808   6.2305 108.8844 7218914 324.8065 312.6135  2.14409840 91479

Śledź ARIANE 44LP DEB w czasie rzeczywistym z AllMySat

Download on the App Store